sat.trackr.live / text

‹ back to catalog

UNKNOWN

NORAD 83903

UNKNOWN UNKNOWN UNKNOWN

§ Identity

Operator
Country
Launch date
Launch site
Launch vehicle
Mass (kg)
RCS (m²)

External: N2YO · Heavens-Above

§ Orbital elements

Epoch: 2026-09-17T20:35:32.992800Z

Period
1,452.85 min
Inclination
5.5047°
Eccentricity
0.0124565
Mean motion
0.99115727 rev/d
Perigee alt
35,584.5 km
Apogee alt
36,643.1 km
Semi-major
42,492.0 km
B*
0.0000e+0
RAAN
288.2907°
Arg perigee
259.2145°
Mean anomaly
137.9626°
Rev number
4,643

§ Raw data

UNKNOWN1 83903U          26260.85802075 -.00000074  00000+0  00000+0 0  99942 83903   5.5047 288.2907 0124565 259.2145 137.9626  0.99115727 46435

JSON: /api/v1/satellites/83903 · /tle

For live sub-satellite position, see the globe view (requires WebGL).

§ Visibility from observer

Set your observer location to see the next 7 days of passes ≥ 10°. The values pass through the URL so the page stays shareable.

No JS? Fill the form by hand. The geolocation button needs JavaScript.